TimeCST,TemperatureF,Dew PointF,Humidity,Sea Level PressureIn,VisibilityMPH,Wind Direction,Wind SpeedMPH,Gust SpeedMPH,PrecipitationIn,Events,Conditions,WindDirDegrees,DateUTC
12:14 AM,14.0,12.2,93,29.66,10.0,SSW,4.6,-,N/A,,Clear,210,2013-02-13 06:14:00
12:34 AM,10.4,10.4,100,29.66,10.0,SSW,6.9,-,N/A,,Clear,210,2013-02-13 06:34:00
12:53 AM,12.2,12.2,100,29.66,10.0,SSW,5.8,-,N/A,,Clear,200,2013-02-13 06:53:00
1:14 AM,15.8,12.2,86,29.67,10.0,SW,3.5,-,N/A,,Clear,220,2013-02-13 07:14:00
1:34 AM,14.0,12.2,93,29.67,10.0,SW,3.5,-,N/A,,Clear,220,2013-02-13 07:34:00
1:53 AM,14.0,12.2,93,29.67,10.0,SW,3.5,-,N/A,,Clear,230,2013-02-13 07:53:00
2:14 AM,12.2,12.2,100,29.66,10.0,Calm,Calm,-,N/A,,Scattered Clouds,0,2013-02-13 08:14:00
2:34 AM,12.2,10.4,92,29.66,10.0,South,3.5,-,N/A,,Clear,190,2013-02-13 08:34:00
2:53 AM,10.4,10.4,100,29.66,7.0,South,4.6,-,N/A,,Clear,190,2013-02-13 08:53:00
3:14 AM,12.2,10.4,92,29.65,5.0,South,3.5,-,N/A,,Clear,190,2013-02-13 09:14:00
3:33 AM,10.4,8.6,92,29.65,4.0,Calm,Calm,-,N/A,,Clear,0,2013-02-13 09:33:00
3:54 AM,8.6,6.8,92,29.64,1.8,Calm,Calm,-,N/A,,Mostly Cloudy,0,2013-02-13 09:54:00
4:13 AM,6.8,3.2,85,29.64,7.0,Calm,Calm,-,N/A,,Overcast,0,2013-02-13 10:13:00
4:34 AM,6.8,3.2,85,29.64,0.5,SSE,3.5,-,N/A,Fog,Light Freezing Fog,150,2013-02-13 10:34:00
4:54 AM,6.8,3.2,85,29.64,0.2,Calm,Calm,-,N/A,Fog,Light Freezing Fog,0,2013-02-13 10:54:00
5:13 AM,5.0,3.2,92,29.64,0.2,Calm,Calm,-,N/A,Fog,Light Freezing Fog,0,2013-02-13 11:13:00
5:34 AM,6.8,5.0,92,29.63,0.2,Calm,Calm,-,N/A,Fog,Light Freezing Fog,0,2013-02-13 11:34:00
5:54 AM,-9999,-9999,N/A,2.96,0.2,SSE,3.5,-,N/A,Fog,Light Freezing Fog,160,2013-02-13 11:54:00
6:13 AM,6.8,5.0,92,29.63,-9999.0,Calm,Calm,-,N/A,Fog,Light Freezing Fog,150,2013-02-13 12:13:00
6:34 AM,6.8,5.0,92,29.63,0.2,Calm,Calm,-,N/A,Fog,Light Freezing Fog,0,2013-02-13 12:34:00
6:54 AM,6.8,5.0,92,29.63,0.2,Calm,Calm,-,N/A,Fog,Light Freezing Fog,0,2013-02-13 12:54:00
7:12 AM,6.8,5.0,92,29.63,0.5,North,-9999.0,-,N/A,Fog,Light Freezing Fog,0,2013-02-13 13:12:00
7:34 AM,8.6,6.8,92,29.63,0.8,Calm,Calm,-,N/A,Snow,Light Snow,140,2013-02-13 13:34:00
7:54 AM,10.4,8.6,92,29.62,1.5,SSE,3.5,-,N/A,Snow,Light Snow,160,2013-02-13 13:54:00
8:13 AM,10.4,8.6,92,29.62,1.2,Calm,Calm,-,N/A,,Overcast,0,2013-02-13 14:13:00
8:34 AM,10.4,8.6,92,2.96,1.8,Calm,Calm,-,N/A,,Overcast,0,2013-02-13 14:34:00
8:54 AM,10.4,8.6,92,29.63,10.0,Calm,Calm,-,N/A,,Overcast,0,2013-02-13 14:54:00
9:12 AM,10.4,8.6,92,29.63,-9999.0,Calm,Calm,-,N/A,,Unknown,0,2013-02-13 15:12:00
9:34 AM,12.2,10.4,92,29.63,0.8,Calm,Calm,-,N/A,,Overcast,0,2013-02-13 15:34:00
9:51 AM,12.2,10.4,92,29.63,5.0,Calm,Calm,-,N/A,,Unknown,0,2013-02-13 15:51:00
10:13 AM,14.0,12.2,93,29.63,7.0,Calm,Calm,-,N/A,,Clear,0,2013-02-13 16:13:00
10:34 AM,15.8,12.2,86,29.63,7.0,Calm,Calm,-,N/A,,Clear,0,2013-02-13 16:34:00
10:54 AM,15.8,12.2,86,29.62,5.0,SSE,3.5,-,N/A,Snow,Light Snow,160,2013-02-13 16:54:00
11:14 AM,15.8,14.0,93,29.62,5.0,SSE,4.6,-,N/A,,Clear,160,2013-02-13 17:14:00
11:34 AM,17.6,15.8,93,29.63,5.0,South,3.5,-,N/A,,Clear,170,2013-02-13 17:34:00
11:54 AM,17.6,15.8,93,29.63,7.0,Calm,Calm,-,N/A,,Clear,0,2013-02-13 17:54:00
12:14 PM,17.6,17.6,100,29.62,7.0,Calm,Calm,-,N/A,,Clear,0,2013-02-13 18:14:00
12:34 PM,19.4,17.6,93,29.61,7.0,Calm,Calm,-,N/A,,Clear,0,2013-02-13 18:34:00
12:54 PM,19.4,19.4,100,29.61,7.0,Calm,Calm,-,N/A,,Clear,0,2013-02-13 18:54:00
1:13 PM,21.2,19.4,93,29.62,10.0,Calm,Calm,-,N/A,,Scattered Clouds,0,2013-02-13 19:13:00
1:34 PM,21.2,21.2,100,29.62,10.0,NW,4.6,-,N/A,,Mostly Cloudy,320,2013-02-13 19:34:00
1:53 PM,23.0,21.2,93,29.63,10.0,NW,3.5,-,N/A,,Overcast,310,2013-02-13 19:53:00
2:14 PM,24.8,21.2,86,29.63,10.0,NW,3.5,-,N/A,,Overcast,310,2013-02-13 20:14:00
2:34 PM,24.8,23.0,93,29.63,10.0,NW,4.6,-,N/A,,Overcast,320,2013-02-13 20:34:00
2:53 PM,23.0,21.2,93,29.63,10.0,NNW,9.2,-,N/A,,Overcast,340,2013-02-13 20:53:00
3:14 PM,23.0,21.2,93,29.63,10.0,NNW,8.1,-,N/A,,Overcast,330,2013-02-13 21:14:00
3:34 PM,32.0,-9999,N/A,29.64,10.0,NNW,8.1,-,N/A,,Overcast,340,2013-02-13 21:34:00
3:53 PM,23.0,21.2,93,29.64,10.0,NNW,3.5,-,N/A,,Mostly Cloudy,330,2013-02-13 21:53:00
4:14 PM,23.0,21.2,93,29.65,10.0,NW,4.6,-,N/A,,Scattered Clouds,320,2013-02-13 22:14:00
4:34 PM,23.0,19.4,86,29.66,10.0,NNW,9.2,-,N/A,,Unknown,330,2013-02-13 22:34:00
4:54 PM,21.2,19.4,93,29.66,10.0,NNW,9.2,-,N/A,,Scattered Clouds,340,2013-02-13 22:54:00
5:12 PM,19.4,17.6,93,29.67,10.0,North,-9999.0,-,N/A,,Clear,0,2013-02-13 23:12:00
5:34 PM,21.2,19.4,93,29.67,10.0,North,6.9,-,N/A,,Mostly Cloudy,350,2013-02-13 23:34:00
5:54 PM,21.2,19.4,93,29.68,10.0,North,8.1,-,N/A,,Overcast,350,2013-02-13 23:54:00
6:14 PM,21.2,19.4,93,29.68,10.0,North,8.1,-,N/A,,Overcast,350,2013-02-14 00:14:00
6:34 PM,21.2,21.2,100,29.69,10.0,North,9.2,-,N/A,,Overcast,350,2013-02-14 00:34:00
6:53 PM,23.0,21.2,93,29.70,10.0,NNW,11.5,-,N/A,,Overcast,340,2013-02-14 00:53:00
7:14 PM,24.8,21.2,86,29.71,10.0,North,8.1,-,N/A,,Overcast,350,2013-02-14 01:14:00
7:34 PM,24.8,21.2,86,29.72,10.0,North,9.2,-,N/A,,Overcast,350,2013-02-14 01:34:00
7:53 PM,24.8,21.2,86,29.73,10.0,NNW,12.7,-,N/A,,Overcast,340,2013-02-14 01:53:00
8:14 PM,24.8,21.2,86,29.73,10.0,NNW,11.5,-,N/A,,Overcast,340,2013-02-14 02:14:00
8:34 PM,24.8,21.2,86,29.73,10.0,North,11.5,-,N/A,,Overcast,350,2013-02-14 02:34:00
8:53 PM,24.8,21.2,86,29.74,10.0,North,10.4,-,N/A,,Overcast,360,2013-02-14 02:53:00
9:14 PM,24.8,21.2,86,29.74,10.0,NNE,9.2,-,N/A,,Overcast,20,2013-02-14 03:14:00
9:34 PM,23.0,17.6,80,29.75,10.0,NNE,12.7,-,N/A,,Overcast,20,2013-02-14 03:34:00
9:53 PM,21.2,15.8,80,29.76,10.0,NNE,12.7,-,N/A,,Overcast,20,2013-02-14 03:53:00
10:14 PM,19.4,15.8,86,29.77,10.0,North,11.5,-,N/A,,Overcast,10,2013-02-14 04:14:00
10:34 PM,19.4,15.8,86,29.78,10.0,North,11.5,-,N/A,,Overcast,10,2013-02-14 04:34:00
10:54 PM,19.4,15.8,86,29.78,10.0,North,11.5,-,N/A,,Overcast,360,2013-02-14 04:54:00
11:14 PM,19.4,14.0,80,29.79,10.0,North,11.5,-,N/A,,Overcast,360,2013-02-14 05:14:00
11:34 PM,19.4,14.0,80,29.79,10.0,North,10.4,-,N/A,,Overcast,360,2013-02-14 05:34:00
11:54 PM,17.6,12.2,79,29.80,10.0,North,12.7,-,N/A,,Overcast,10,2013-02-14 05:54:00